ECMWFFLT2_850_rhum_000.txt.gz
RH
34 34 33 33 32 32 32 34 33 30 30 30 30 28 28 27 26 25 24 22 20 19 17 14 11 10 9 8 7 7 8 7 7 7 6 6 5 5 4 4 4 3 3 3 3 2 2 1 1 2 1 2
35 35 34 34 33 33 33 34 34 33 32 31 32 31 30 30 29 29 27 25 23 21 20 16 12 11 9 8 8 7 7 7 7 7 7 7 6 5 5 5 4 4 4 3 3 2 2 2 2 1 1 2
36 36 36 36 35 35 34 34 35 35 33 32 33 33 32 32 32 32 30 28 25 23 23 19 14 12 10 9 9 8 8 8 8 8 8 7 7 7 6 6 5 5 4 4 4 3 2 2 2 1 2 1
36 37 38 37 37 36 35 35 35 36 34 34 35 36 35 35 35 34 32 30 28 25 25 22 15 11 10 10 9 9 9 8 9 9 9 8 8 8 7 7 6 5 5 5 4 3 3 3 3 2 2 1
37 38 39 39 38 37 37 36 36 37 36 36 37 37 37 37 37 37 34 32 29 26 28 24 14 12 11 9 9 9 9 9 9 9 9 9 9 8 8 7 6 6 6 5 5 4 4 3 3 2 2 1
36 38 39 40 40 38 37 37 37 37 37 37 37 38 38 38 38 38 36 33 30 27 30 25 14 12 11 9 9 9 9 9 9 9 10 9 9 9 9 8 7 7 6 6 5 5 4 4 3 2 2 1
35 37 38 39 40 40 39 38 37 37 38 38 37 38 38 39 39 39 37 35 32 29 30 26 16 13 11 9 9 10 9 9 9 10 9 9 9 9 9 9 8 8 7 6 6 5 5 4 3 2 1 1
34 35 36 38 40 41 41 39 38 38 38 38 38 38 38 39 40 40 39 36 33 31 30 27 20 14 11 10 10 11 9 9 10 9 10 10 10 10 10 9 9 8 8 7 6 6 5 4 3 2 1 1
31 33 35 36 38 40 41 41 40 39 39 39 39 38 39 39 40 40 39 38 36 34 32 28 23 17 12 11 11 10 9 9 9 9 10 10 10 11 10 10 10 9 8 7 7 6 5 4 2 1 1 1
30 32 33 34 36 38 39 41 41 41 40 40 39 39 39 39 40 40 39 39 38 37 34 30 25 19 14 11 10 9 8 9 9 10 10 10 11 11 11 11 10 10 9 8 7 6 5 4 2 2 1 1
30 30 31 32 34 36 37 40 41 41 41 41 41 40 40 40 40 40 40 39 39 38 36 33 27 21 16 11 9 9 8 9 9 9 10 11 11 11 11 11 11 11 10 9 8 7 5 3 2 1 1 1
30 30 30 31 33 34 36 38 40 40 42 43 42 42 41 41 41 40 40 39 39 38 36 34 28 21 17 12 10 9 8 9 9 9 10 10 11 11 11 11 11 11 10 10 8 7 5 4 2 1 1 2
32 31 31 31 32 32 33 35 36 38 41 43 43 43 42 42 42 41 41 41 40 38 36 35 29 23 19 14 11 9 9 9 9 9 10 10 10 11 11 11 11 11 11 10 9 7 5 4 2 1 1 1
33 32 32 32 32 31 32 32 33 36 38 40 43 43 43 43 43 43 43 42 41 39 38 36 31 27 22 16 11 9 9 8 8 9 9 10 10 10 11 11 11 11 11 10 9 8 6 4 2 1 1 1
33 33 33 32 32 32 32 32 33 34 35 37 39 41 43 44 44 44 44 43 43 41 39 37 35 31 26 20 13 9 9 8 8 8 8 9 9 10 10 11 11 11 11 11 10 8 6 4 2 2 1 1
33 33 33 33 33 33 32 32 33 33 34 35 36 38 41 44 44 45 45 45 44 43 41 39 36 33 29 24 15 9 8 8 8 8 8 8 8 9 10 10 11 11 11 11 10 9 7 5 3 2 1 2
33 33 33 34 33 33 33 33 33 33 34 34 35 37 39 42 44 45 45 46 46 45 44 41 38 35 31 26 17 9 8 7 8 8 8 8 8 8 9 9 10 11 11 11 10 10 8 5 3 2 1 2
32 33 33 33 33 33 33 33 33 33 34 34 35 37 38 40 43 45 46 46 47 47 46 45 42 39 36 30 19 11 8 8 8 8 8 8 8 8 8 9 9 10 10 10 10 10 9 6 3 2 1 1
31 32 32 32 32 32 32 32 33 33 33 35 35 37 38 39 42 44 46 47 47 48 48 48 47 44 41 34 23 14 10 8 8 8 8 7 8 7 8 8 9 10 10 10 11 10 9 7 4 2 1 2
31 32 32 31 31 31 32 32 32 33 34 35 36 37 38 39 41 43 45 47 48 49 49 49 49 48 43 36 27 18 12 10 9 8 7 7 7 7 7 8 8 9 10 10 11 11 10 8 5 3 2 2
32 32 32 31 31 31 31 32 32 33 34 35 36 37 38 39 40 43 45 47 48 49 50 50 51 50 46 38 30 22 15 11 9 8 7 7 7 7 7 7 8 9 10 10 11 11 11 8 6 3 2 2
33 33 32 31 31 31 31 31 32 33 34 35 36 37 38 40 41 43 45 47 49 49 51 51 52 52 49 43 34 25 17 13 11 8 7 7 7 7 7 7 8 9 9 10 11 11 11 9 7 4 2 2
34 33 32 31 30 30 30 30 30 31 32 32 34 35 37 39 41 43 46 48 49 50 51 52 53 53 53 50 42 32 22 16 13 10 8 7 7 6 6 7 7 9 9 10 11 11 12 10 8 6 3 2
38 34 32 32 31 31 30 30 30 31 32 32 33 34 36 38 40 42 45 48 50 51 52 53 54 55 55 54 49 40 30 22 17 14 10 7 6 6 6 7 7 9 10 10 12 12 12 11 9 7 5 3
48 44 42 38 35 33 32 33 33 33 33 34 35 36 37 38 40 42 44 47 49 51 53 54 55 56 56 56 54 50 40 30 22 17 12 9 7 6 6 7 8 9 10 11 13 13 12 12 11 8 6 5
53 53 52 49 44 39 37 37 36 36 37 37 38 38 39 40 42 44 45 47 49 51 53 55 55 55 56 57 57 56 48 36 27 20 16 12 8 7 7 7 8 9 10 13 13 13 13 12 10 9 8 7
53 51 49 48 46 44 42 40 40 40 40 39 39 38 40 41 43 45 46 48 49 52 54 54 54 54 55 57 57 58 54 43 33 25 20 15 11 8 7 6 7 9 11 13 14 14 15 13 12 11 9 8
55 52 48 44 41 41 41 41 42 43 41 40 38 37 39 41 42 44 46 48 50 52 53 53 52 53 54 56 57 58 57 51 41 31 24 19 14 8 6 6 6 8 11 13 15 17 17 16 15 11 9 9
53 52 51 48 45 44 43 43 43 44 44 44 44 43 43 44 45 46 47 48 50 51 53 53 52 53 54 55 56 57 58 55 48 38 29 23 19 12 6 5 6 9 12 13 15 18 18 17 16 12 9 9
55 52 52 51 50 50 51 51 51 52 52 52 52 51 50 50 49 49 50 50 51 51 52 53 53 53 54 54 55 57 57 56 51 43 34 27 25 18 10 6 7 9 11 13 14 16 16 16 15 12 11 11
63 60 58 57 55 53 53 53 54 58 61 61 60 57 55 55 53 53 53 54 54 53 53 53 53 54 54 55 55 56 57 55 52 47 38 31 28 24 16 7 5 8 11 13 13 14 16 17 15 14 14 14

ECMWFFLT2_850_rhum_003.txt.gz
RH
30 31 30 31 30 30 30 29 32 28 29 38 59 74 72 61 38 26 24 24 23 27 36 26 13 8 16 24 32 55 59 50 35 24 25 24 25 35 57 46 17 14 9 5 5 3 4 3 2 2 1 2
31 33 32 33 32 31 32 31 33 31 31 30 32 49 64 55 33 30 27 26 26 28 44 38 20 10 17 33 48 70 72 50 23 14 22 20 18 27 29 14 7 9 6 6 5 4 4 3 3 2 2 2
32 33 33 34 34 33 33 32 34 33 32 33 32 33 38 37 32 34 31 28 28 26 33 32 23 14 16 33 50 72 83 61 26 14 18 16 15 16 12 8 9 7 6 7 5 6 4 4 4 2 2 2
32 33 34 35 35 34 35 34 34 35 34 34 34 33 33 35 36 36 35 33 31 28 29 29 26 17 13 25 41 61 81 78 52 25 15 15 13 10 10 8 8 8 7 7 6 6 5 5 4 3 3 1
33 33 34 35 36 36 36 36 35 35 36 36 35 35 36 37 38 38 38 37 35 33 32 35 31 19 14 18 32 52 72 87 77 44 19 17 14 8 10 8 9 9 7 8 7 7 5 5 4 3 3 2
33 33 34 35 36 37 37 37 37 36 36 36 36 36 36 36 37 39 39 39 40 38 36 39 33 20 17 13 17 36 59 86 93 68 34 19 14 9 10 10 9 9 8 9 7 7 6 5 5 4 4 3
33 33 34 35 36 37 38 38 37 38 37 37 37 36 37 37 37 38 39 41 41 41 39 40 36 24 19 15 13 20 38 70 94 84 51 29 17 10 10 10 9 10 9 9 8 8 7 6 6 5 4 3
32 33 34 35 36 37 38 39 39 39 38 37 37 37 37 37 38 38 39 41 41 42 41 41 41 31 23 18 15 17 23 43 65 62 43 30 18 9 10 11 10 10 9 10 9 8 8 7 6 5 5 3
31 32 33 34 35 37 37 39 40 40 40 39 38 38 38 38 38 38 39 40 41 42 42 43 43 38 31 25 19 17 17 21 26 23 17 16 12 9 11 11 10 11 10 10 9 9 9 7 7 6 5 4
31 31 32 32 33 35 37 38 39 40 40 40 40 39 39 39 39 39 39 40 41 41 42 42 43 42 36 30 23 18 16 14 11 9 9 9 9 10 10 10 11 11 11 11 10 10 9 8 8 6 5 4
32 32 31 31 33 34 35 37 38 38 39 40 41 41 40 40 40 39 39 40 41 41 42 42 42 42 39 33 27 21 16 12 9 8 9 9 9 10 10 11 11 11 11 11 11 11 10 9 8 7 6 4
34 33 32 32 32 33 34 35 36 36 37 39 40 41 42 41 41 40 40 40 40 40 41 42 41 41 40 36 29 22 17 12 9 8 8 9 9 9 10 11 11 11 12 11 11 11 11 10 8 7 6 4
37 35 34 33 32 32 32 33 33 34 36 38 39 41 42 43 42 42 42 41 41 41 41 41 41 41 40 37 32 25 19 13 10 8 8 8 9 9 10 10 11 11 11 12 12 11 11 10 9 8 6 4
37 36 35 34 33 33 33 32 31 33 34 35 37 39 41 42 43 43 43 43 42 41 42 41 41 41 40 38 34 29 22 15 11 8 8 8 8 9 9 10 10 11 11 11 12 12 12 11 10 9 7 5
37 37 35 35 35 34 34 33 33 32 33 34 35 35 38 40 42 43 44 44 44 43 43 42 42 42 41 40 38 34 27 18 12 9 8 8 8 8 9 10 10 10 10 11 11 12 11 11 10 10 7 5
38 37 36 36 35 35 35 35 35 34 33 33 33 34 35 37 39 41 43 44 45 45 44 44 44 43 43 42 41 38 31 21 13 9 8 8 8 8 9 9 9 9 10 10 11 11 11 11 11 10 9 6
41 40 39 39 37 37 36 37 36 36 35 34 34 35 34 35 36 37 39 41 43 44 45 46 45 45 45 44 43 40 32 23 15 11 9 8 7 8 8 8 9 9 9 10 10 11 11 11 11 10 9 7
48 46 44 43 42 40 39 39 38 38 38 37 36 36 35 36 36 36 36 37 39 41 43 46 46 46 46 46 45 41 35 26 19 13 10 9 8 8 8 8 8 8 9 9 9 10 10 11 11 11 10 8
56 54 51 49 47 46 44 43 42 41 40 40 39 38 37 37 37 37 37 37 37 39 41 43 46 47 47 47 46 44 39 30 21 14 10 8 8 7 8 8 8 8 8 8 9 9 10 11 11 11 11 9
62 61 59 56 54 52 50 48 47 46 45 44 42 41 40 39 39 38 38 39 39 39 40 41 43 46 47 48 48 47 43 35 26 19 14 10 8 8 8 8 8 8 8 8 8 9 9 10 11 11 11 10
64 64 63 62 61 59 57 55 54 53 52 50 49 48 46 44 43 42 42 42 42 41 41 41 43 46 48 48 48 49 47 42 34 25 19 13 9 8 8 8 8 8 8 8 8 8 9 10 10 11 11 12
65 65 66 66 65 63 61 59 58 57 55 54 54 53 51 51 49 48 47 46 46 45 45 44 45 46 48 48 49 49 49 47 41 30 23 19 13 9 8 8 8 8 8 8 8 8 8 9 10 11 12 12
61 63 65 67 67 66 64 62 60 59 57 55 53 52 50 50 49 49 49 48 48 48 48 48 48 48 48 48 48 50 50 49 46 39 31 26 20 13 10 8 8 8 8 8 8 8 8 9 10 10 11 12
55 57 59 62 64 64 64 64 63 61 60 57 54 52 50 49 48 48 47 48 48 49 49 49 49 49 49 49 48 49 51 51 51 49 44 37 30 22 14 11 9 8 8 8 8 8 8 9 10 10 11 12
59 59 58 58 60 61 62 63 63 62 61 59 58 55 54 52 50 49 47 46 46 47 48 48 49 50 50 50 48 49 51 52 53 54 52 45 36 28 20 14 11 9 7 8 8 8 8 8 10 11 12 13
64 64 63 61 60 59 60 61 61 62 62 61 60 59 57 56 53 51 49 47 47 47 47 48 49 49 50 50 50 50 51 53 53 53 54 49 41 35 28 20 15 11 8 8 8 8 9 9 10 11 12 13
61 63 64 63 61 58 57 57 58 60 62 63 62 62 61 59 57 55 52 51 50 49 49 50 50 50 51 51 51 52 52 53 54 54 56 55 50 44 35 27 21 16 12 9 9 9 11 11 11 13 13 13
54 57 59 60 60 58 55 53 53 53 55 59 61 63 64 62 60 58 56 54 53 52 52 52 52 52 52 52 52 52 53 54 55 55 56 57 56 50 42 35 27 22 16 10 9 10 13 14 15 16 14 14
46 49 52 55 56 55 53 52 51 50 49 50 52 56 60 63 63 61 59 57 55 54 53 53 54 54 54 53 53 53 54 55 55 55 56 57 57 55 52 45 35 28 21 14 10 9 12 15 18 17 14 14
39 42 43 47 50 51 52 51 50 52 54 54 52 50 52 57 61 63 63 62 60 57 55 54 53 54 54 54 54 54 55 55 55 55 55 56 57 57 56 51 42 33 26 19 12 8 8 12 15 15 14 15
39 41 41 42 42 45 47 48 48 49 52 56 57 54 51 51 56 62 64 64 64 62 59 57 55 55 54 54 55 55 55 56 56 56 55 56 56 56 56 54 47 39 31 25 16 9 7 8 10 12 15 16

ECMWFFLT2_850_rhum_006.txt.gz
RH
27 24 22 17 22 22 21 24 23 23 47 83 92 97 96 95 88 63 57 29 23 78 95 56 10 32 87 94 87 86 87 85 84 84 84 86 83 84 79 79 93 89 78 66 35 7 5 5 3 4 2 3
29 26 24 20 21 21 22 25 25 28 34 57 78 88 85 78 73 44 33 27 20 61 98 86 33 21 71 96 93 90 86 86 89 87 86 88 84 83 81 84 95 86 79 68 28 5 7 5 4 4 3 3
30 28 28 25 24 23 25 26 25 31 31 39 52 64 68 59 52 37 31 31 25 43 68 83 54 22 57 92 97 97 93 91 93 93 90 88 84 83 86 92 95 78 67 48 15 6 8 5 6 4 4 3
30 30 30 29 28 28 27 29 28 30 32 33 36 41 48 47 43 35 33 35 30 33 40 53 50 30 49 84 98 97 98 99 95 95 91 87 87 90 94 98 90 68 55 32 9 9 7 6 7 5 5 4
30 31 31 31 30 31 30 31 31 30 33 33 33 34 36 37 38 35 34 37 35 33 32 34 39 30 27 57 91 98 97 100 99 98 92 87 90 95 98 94 80 55 38 22 8 9 7 7 7 5 6 4
30 31 32 33 31 32 32 32 32 32 33 33 38 37 34 35 35 36 36 37 37 35 36 35 36 30 17 28 65 89 97 99 99 101 96 91 91 100 99 79 60 39 22 13 9 9 8 8 7 7 6 4
30 31 32 34 33 33 33 33 33 33 33 33 42 42 34 36 35 35 37 37 39 38 38 38 37 32 22 18 29 53 81 97 99 100 98 95 96 99 83 50 32 24 14 10 10 9 9 9 8 7 6 5
30 31 32 34 35 34 34 35 35 34 35 34 37 39 35 36 36 36 37 37 38 40 39 39 40 34 25 20 17 22 44 71 88 98 101 99 100 90 61 31 17 15 12 10 10 9 10 9 9 8 7 7
30 30 32 33 34 36 36 35 37 36 36 37 36 36 36 36 37 36 37 37 38 39 40 40 42 40 31 25 25 21 21 34 54 76 88 87 85 71 47 25 13 12 11 10 9 10 10 10 10 9 8 7
31 31 31 32 34 35 37 36 37 38 37 38 38 37 37 36 37 38 37 37 38 38 39 40 41 42 40 35 33 28 22 22 27 39 50 53 51 42 30 17 10 11 10 10 10 10 11 10 10 10 9 8
33 32 31 31 33 34 35 37 36 37 38 37 38 38 38 38 37 37 38 38 38 38 39 40 40 41 42 41 39 34 31 30 27 24 24 26 24 18 15 11 10 10 9 10 10 11 11 11 11 10 10 9
37 34 33 32 32 33 34 36 38 37 38 38 38 39 38 39 38 38 38 38 38 38 39 39 40 41 42 42 42 40 39 37 33 28 23 19 16 12 10 9 9 9 10 10 10 11 11 11 12 11 11 10
43 39 37 35 33 33 33 34 37 37 38 38 38 39 39 39 39 39 39 39 39 39 39 39 40 40 41 42 42 41 40 39 37 33 28 22 18 14 11 10 9 9 10 10 10 11 11 11 12 11 11 10
48 46 42 40 37 35 34 34 34 37 39 40 40 39 39 40 40 40 40 40 40 40 39 39 40 40 41 41 42 42 40 40 39 35 32 27 22 17 13 11 9 9 9 10 10 11 11 11 11 11 12 11
52 52 50 47 44 41 38 36 34 35 37 38 40 40 40 40 40 41 40 41 41 41 41 40 40 40 41 41 41 42 41 41 39 37 35 30 25 20 15 11 9 9 9 9 10 10 11 10 11 11 11 11
59 57 56 54 52 50 46 43 40 37 36 36 38 39 41 41 41 41 41 42 42 42 42 42 42 41 41 42 42 42 42 42 40 37 34 30 25 19 14 11 10 10 8 9 10 10 11 10 11 11 11 12
67 65 63 61 59 57 55 52 50 46 43 39 37 37 38 39 39 40 40 41 42 43 44 43 43 42 42 42 42 43 42 43 41 37 33 29 24 18 15 12 11 11 8 9 9 9 10 9 10 10 10 11
67 68 67 66 64 62 61 58 57 55 53 50 47 43 40 39 38 38 37 37 39 41 43 44 44 44 43 43 43 43 43 43 42 39 35 32 27 21 18 15 12 11 9 8 9 9 9 9 9 10 10 11
65 67 67 68 67 67 66 63 62 60 59 58 56 53 51 48 45 43 40 39 39 39 39 41 43 44 44 43 43 43 43 43 43 42 39 35 31 26 21 17 13 11 9 8 8 8 9 9 9 9 9 10
63 66 68 69 69 69 68 68 67 66 65 62 60 60 58 56 54 53 51 48 46 44 42 42 43 44 43 43 43 42 42 42 43 43 41 39 34 29 25 20 15 13 9 7 8 8 8 8 8 9 9 9
58 61 65 68 69 69 69 69 69 70 70 68 66 65 62 60 58 58 58 58 56 53 50 48 47 46 44 44 42 40 40 41 43 44 43 42 39 34 30 24 18 13 10 8 8 8 8 8 8 8 8 9
55 57 58 60 63 66 68 69 70 70 70 70 70 69 67 65 62 60 60 60 60 59 58 56 53 51 49 47 44 40 39 39 40 43 44 44 44 39 34 30 25 19 13 10 8 8 8 8 8 8 8 8
47 53 55 56 57 60 63 65 67 68 70 70 69 69 69 68 66 64 62 61 61 60 60 60 58 57 55 52 51 46 42 39 39 41 43 44 44 41 35 32 29 23 15 10 8 8 8 7 7 8 8 8
35 43 47 52 54 55 57 59 61 63 66 67 68 69 68 68 67 65 64 63 62 61 61 61 60 60 59 57 57 54 50 45 40 39 41 43 44 42 36 30 25 20 15 10 8 8 8 8 8 8 7 8
28 35 40 45 50 52 54 55 56 58 59 61 63 65 66 67 66 66 65 64 63 62 61 62 62 61 60 61 61 60 58 53 47 41 39 41 43 43 39 34 29 24 17 10 9 9 8 8 7 8 7 8
27 31 35 40 43 44 50 53 54 54 55 57 58 59 61 62 63 65 65 66 66 65 63 62 62 62 61 62 63 64 63 60 56 49 41 39 41 42 41 39 36 33 25 16 12 10 11 12 11 9 8 7
32 33 33 40 44 40 42 48 50 51 52 53 54 54 56 57 58 61 63 65 65 64 65 64 62 62 61 61 62 64 65 64 62 58 49 43 42 44 43 40 38 38 33 24 17 15 17 19 18 16 13 9
37 36 36 43 47 42 42 45 48 51 51 51 53 53 53 55 55 56 57 60 64 63 62 63 64 64 63 62 63 64 66 65 64 62 57 50 46 46 44 42 41 43 41 31 23 22 20 18 17 18 19 16
44 45 51 57 55 51 55 61 61 58 52 47 51 53 53 55 55 54 52 53 60 64 62 60 62 65 65 64 64 64 65 65 65 63 61 56 51 48 48 46 46 48 49 40 32 30 25 21 20 17 18 20
59 64 73 79 77 74 75 79 80 75 65 53 49 51 53 56 58 58 55 51 53 60 63 61 60 62 64 65 66 65 65 65 65 63 62 60 54 51 50 50 49 50 52 47 41 38 30 27 27 21 19 19
74 78 81 86 89 91 90 90 90 87 84 73 59 53 53 59 65 65 63 58 53 54 61 64 62 61 62 64 65 65 66 66 65 63 61 60 57 54 53 51 50 50 53 51 47 45 37 31 30 25 20 18

ECMWFFLT2_850_rhum_009.txt.gz
RH
28 26 24 24 18 20 52 91 93 84 89 88 86 84 84 85 86 87 90 92 93 92 91 86 57 66 93 83 83 81 78 86 83 85 86 83 82 77 74 77 83 92 91 88 69 19 2 7 2 5 2 2
28 27 25 24 22 19 33 75 96 90 92 95 87 87 89 87 88 86 92 97 96 90 89 99 62 48 90 92 84 86 79 80 80 81 81 77 77 75 74 77 83 89 86 89 71 19 4 8 3 6 3 3
29 27 27 24 23 23 20 40 79 95 94 95 90 92 95 92 91 84 88 94 94 91 86 105 79 40 79 100 87 89 84 80 80 81 82 80 83 80 77 81 83 83 79 91 88 35 5 8 5 6 5 4
33 28 27 28 23 24 22 22 53 89 97 96 92 91 97 95 91 85 82 80 77 78 76 99 90 44 70 102 92 91 88 87 89 91 95 93 93 84 77 83 82 81 81 92 96 46 5 8 7 6 7 4
40 34 27 28 27 24 23 22 36 66 89 97 96 92 96 95 92 90 85 79 71 62 54 78 87 50 63 98 96 94 90 90 95 97 99 98 98 87 78 86 83 84 90 95 93 47 7 9 8 7 8 5
39 40 34 28 28 29 24 22 25 44 77 93 96 95 96 97 93 92 93 92 75 50 36 48 66 48 55 92 98 96 95 93 97 96 96 97 99 91 87 90 87 90 91 89 80 38 8 9 8 8 8 6
37 35 38 35 30 30 28 26 22 38 79 92 93 98 97 97 92 88 91 95 72 40 32 33 42 40 43 74 94 97 96 94 98 97 95 99 98 94 94 91 91 91 74 57 46 22 8 10 9 9 9 7
55 41 38 46 44 34 29 30 23 38 79 91 90 97 98 95 89 88 89 96 82 43 34 35 32 36 32 41 69 91 97 95 99 99 96 96 95 96 93 87 87 75 46 25 17 12 9 10 9 9 9 9
70 65 57 60 63 56 46 42 32 34 58 76 85 92 94 93 87 89 88 92 94 59 36 38 34 35 32 25 35 60 83 93 98 99 98 95 94 97 92 84 70 44 24 14 10 10 10 9 10 10 9 9
63 73 76 71 72 76 73 68 57 44 44 57 76 86 86 88 87 90 89 88 98 77 42 37 38 36 36 32 27 32 48 68 87 97 99 96 96 96 89 81 60 36 23 15 10 11 10 10 10 10 11 10
56 62 73 77 78 82 83 81 78 70 61 55 64 82 87 85 84 88 91 88 98 85 47 35 38 37 38 37 36 34 32 37 57 82 93 94 93 88 81 74 60 45 29 14 11 11 9 11 11 11 11 11
61 59 62 71 79 82 81 78 79 82 80 70 69 86 95 90 82 83 85 88 98 79 44 37 37 36 39 38 39 40 37 31 35 53 71 78 78 76 71 64 55 42 25 14 11 10 10 11 10 11 11 11
69 67 64 67 74 80 82 77 78 83 83 82 79 81 91 94 86 85 84 89 97 67 37 39 38 36 39 38 40 40 38 36 34 38 48 55 56 59 58 53 46 35 22 14 10 9 10 10 11 11 11 11
68 70 70 71 74 79 81 80 81 82 83 86 83 79 85 93 94 92 90 93 86 54 35 39 37 37 39 38 39 40 40 39 38 36 38 41 40 42 43 41 37 30 21 14 11 11 10 10 11 11 11 12
63 65 68 71 75 78 82 84 82 81 81 82 82 82 84 92 98 85 71 74 67 47 40 39 37 38 38 39 39 39 41 40 41 39 37 37 37 36 34 32 31 26 19 14 12 11 10 11 10 11 11 11
58 61 64 66 71 76 80 84 85 85 84 81 78 79 84 91 97 77 48 48 53 50 46 39 38 39 37 39 39 40 40 39 41 40 38 37 36 36 32 27 26 23 16 13 14 13 12 12 10 12 12 11
55 58 60 62 68 72 77 82 85 87 86 85 82 79 84 87 94 90 60 44 45 47 48 42 39 38 38 39 38 39 40 39 39 36 35 36 35 35 32 27 22 22 18 14 17 17 15 13 12 13 11 12
52 57 62 61 64 66 72 78 81 85 85 87 84 81 86 84 93 100 72 55 56 50 47 44 39 36 34 37 38 39 39 38 38 36 34 34 37 37 35 31 26 27 26 22 22 22 20 17 14 13 12 13
36 47 59 63 63 60 61 68 73 81 84 85 84 82 85 83 91 94 69 59 65 60 54 46 39 35 31 33 35 36 38 38 37 36 34 34 37 38 37 35 32 32 33 29 27 27 26 22 17 15 14 13
18 25 38 53 65 65 59 60 64 73 80 84 85 84 84 82 86 93 80 68 67 64 61 53 42 36 30 30 30 30 34 36 37 36 35 36 37 38 38 38 36 36 36 33 28 26 27 25 20 17 17 16
13 14 19 27 45 64 69 67 64 65 68 74 80 83 86 84 83 89 89 86 84 75 67 62 54 46 39 32 27 25 27 29 34 35 35 35 36 38 37 37 38 37 37 35 29 25 26 26 22 17 16 17
23 16 17 15 19 38 57 69 72 68 63 61 67 72 78 83 83 86 88 89 93 89 82 75 68 63 56 47 36 29 26 25 27 31 34 34 35 36 36 37 37 37 36 35 31 25 23 23 20 16 13 13
44 32 31 26 17 17 29 48 64 72 73 65 60 60 63 69 75 80 86 90 93 93 90 86 83 79 72 64 55 45 38 32 27 26 29 31 33 33 34 36 34 33 33 32 30 25 21 21 18 15 12 10
56 53 55 51 39 29 24 26 35 51 71 77 69 63 59 59 63 68 74 81 89 93 93 90 90 88 83 79 72 63 56 49 41 34 29 27 30 31 31 31 29 28 28 26 25 22 19 18 17 15 12 9
60 60 66 67 63 56 43 34 32 34 50 70 75 68 63 60 58 60 63 67 74 81 88 91 92 90 86 86 83 77 70 63 57 50 41 33 30 31 31 30 27 27 26 23 21 21 18 15 14 12 10 9
67 65 66 67 69 72 66 59 58 46 39 51 62 63 64 66 64 62 61 64 67 70 76 82 89 92 88 86 87 84 78 73 67 61 53 45 39 35 34 32 29 27 27 24 23 23 22 20 17 14 10 8
67 68 72 74 75 80 80 75 73 67 57 58 65 64 63 66 70 71 68 66 67 69 71 75 80 86 88 87 86 84 81 78 74 68 62 55 48 42 38 35 30 28 28 29 27 24 24 26 25 23 20 16
60 62 67 74 79 82 84 81 78 76 71 70 72 72 69 66 67 73 76 74 71 69 69 74 78 80 81 84 87 84 79 78 76 73 69 63 56 49 43 39 33 30 28 28 29 27 25 24 24 25 27 26
54 54 57 62 69 77 83 84 83 80 73 70 71 75 77 74 69 68 72 78 78 74 70 70 75 78 77 76 83 85 79 75 75 72 69 68 65 58 51 43 37 33 29 27 29 31 30 26 23 23 24 27
51 51 52 53 59 69 78 84 87 86 80 77 77 77 77 79 79 73 71 75 80 81 78 75 74 76 79 77 78 83 81 75 72 68 65 65 65 63 58 50 42 38 34 30 29 32 34 34 34 29 22 23
50 51 51 52 57 63 71 79 87 89 87 87 87 85 84 83 83 80 77 77 80 83 85 85 82 79 81 83 81 82 81 76 72 69 65 62 61 61 59 55 47 42 40 36 33 33 33 33 36 35 27 22

ECMWFFLT2_850_rhum_015.txt.gz
RH
89 90 86 90 91 89 90 90 90 93 89 83 84 83 78 81 87 85 83 84 86 87 88 89 86 87 89 90 90 82 79 87 92 92 92 91 90 89 91 97 94 92 91 83 66 34 11 3 2 2 1 2
87 89 87 90 90 89 91 93 92 89 88 85 84 83 77 82 88 87 87 83 82 86 89 88 87 88 86 83 88 85 79 84 90 94 94 93 94 85 85 95 91 93 98 87 73 58 40 20 7 3 2 3
84 88 89 88 83 82 83 84 90 88 86 82 76 80 84 88 90 88 88 86 83 85 89 89 88 87 84 81 83 86 81 82 87 92 95 94 94 86 84 91 89 94 97 92 79 69 65 49 27 10 2 3
89 90 89 86 78 76 76 72 78 83 83 78 70 77 92 94 92 92 87 85 84 83 86 87 88 85 84 83 78 82 82 81 86 90 94 91 90 89 89 89 90 93 92 90 81 73 74 63 47 28 9 3
95 96 95 93 88 85 86 79 71 67 64 69 72 77 92 98 94 93 88 85 87 86 86 85 89 88 87 86 76 81 83 80 85 89 93 90 88 91 91 90 89 90 89 88 85 80 78 69 58 46 27 7
87 92 96 98 98 94 92 89 82 74 62 57 64 73 87 98 96 93 89 90 91 89 89 87 91 90 88 90 82 83 84 81 83 86 90 90 91 90 89 92 90 89 90 89 89 85 82 77 66 62 49 16
80 85 89 92 95 95 93 90 88 89 82 66 57 61 76 92 96 95 92 94 95 90 90 90 90 89 89 91 87 84 83 82 83 84 85 87 90 87 84 89 90 91 93 90 87 83 79 76 72 70 51 17
74 79 83 87 88 90 92 91 90 90 90 83 67 56 62 78 89 93 93 93 95 92 90 91 91 89 89 90 88 86 85 84 84 86 87 86 85 82 81 84 86 88 90 86 76 72 68 67 71 58 26 8
65 69 74 81 85 88 88 87 88 89 91 91 83 68 60 65 75 87 94 92 91 93 91 90 92 91 90 90 89 86 88 89 85 85 89 91 84 80 82 81 82 82 84 80 67 64 60 61 64 39 10 7
55 60 65 70 76 81 84 85 85 87 90 93 92 86 77 68 66 74 88 91 87 90 93 91 89 91 92 90 89 83 86 92 89 84 86 91 87 82 82 78 76 74 74 72 63 62 58 57 54 27 8 8
32 42 52 59 65 70 75 80 83 85 88 92 93 91 88 82 74 66 71 81 82 87 94 95 92 90 89 87 88 80 81 92 91 87 87 89 88 84 82 74 68 65 63 63 60 60 56 53 47 24 9 9
16 19 26 34 44 55 63 71 78 83 84 88 91 92 92 90 88 76 65 67 75 85 90 94 95 92 88 84 85 76 75 91 94 90 89 88 88 86 81 74 66 61 57 58 57 53 47 39 30 18 9 9
17 16 15 15 19 26 37 51 65 76 81 84 86 89 91 91 95 91 80 72 73 83 89 93 94 91 90 86 84 78 73 85 96 95 90 88 89 88 83 74 65 61 58 56 54 46 36 25 17 12 11 11
16 16 16 15 14 14 16 23 35 51 67 78 83 86 87 87 91 93 93 87 83 89 93 95 94 89 88 84 81 83 80 80 87 94 93 89 88 90 87 76 64 59 58 55 52 46 35 27 23 18 16 15
15 15 14 13 14 14 14 13 14 21 34 51 67 80 87 87 86 88 92 92 91 95 97 96 95 92 89 84 78 81 87 83 77 80 89 92 88 88 86 78 72 63 58 55 52 49 43 40 37 31 25 23
16 15 14 13 12 12 13 14 13 12 13 20 33 51 70 84 88 86 86 89 91 91 95 99 99 97 93 87 82 80 86 89 80 69 79 95 93 88 86 81 80 74 65 57 53 50 47 46 44 41 36 32
17 17 16 14 12 11 11 12 13 13 12 11 13 20 34 56 76 86 86 85 87 88 92 98 98 98 97 94 90 85 83 88 88 74 73 93 98 92 91 87 82 80 73 63 57 54 50 47 44 44 42 39
18 19 18 17 15 13 11 10 11 12 13 13 12 11 13 23 42 64 81 86 85 86 87 92 94 95 98 99 97 93 90 89 90 83 74 83 96 97 95 91 82 76 71 65 60 57 52 50 46 44 43 42
21 22 21 21 22 20 16 13 12 12 14 15 16 15 11 10 17 32 54 73 82 85 84 86 90 93 96 99 100 98 97 94 90 87 79 77 86 95 96 93 86 76 67 62 60 57 53 51 50 47 45 43
27 33 33 32 33 33 29 25 20 17 16 17 21 26 23 14 11 15 28 48 66 79 85 84 85 91 93 94 100 100 99 99 95 88 84 80 76 83 91 92 89 81 71 61 55 54 53 51 51 49 47 45
33 41 45 46 48 47 44 41 36 30 25 20 21 28 37 39 30 19 19 33 50 64 77 84 85 89 92 92 97 100 99 100 99 93 89 85 78 72 76 82 84 81 75 66 58 53 52 51 51 50 47 46
34 39 44 49 55 57 56 54 50 45 39 32 29 27 34 52 58 46 34 36 47 56 66 78 84 86 91 92 95 99 100 99 98 98 95 90 85 76 69 70 72 71 68 64 60 54 51 49 49 48 47 47
34 36 40 46 52 58 59 59 56 53 50 44 44 40 34 38 51 60 59 53 52 54 59 69 79 84 88 91 92 93 97 100 99 99 99 95 90 84 75 69 64 61 58 57 57 55 53 52 49 46 47 48
35 36 39 44 49 53 53 55 54 52 53 50 48 47 44 42 45 57 69 71 68 64 59 62 70 79 86 90 92 92 93 98 100 99 99 98 94 88 82 75 70 66 62 61 62 63 62 61 58 52 49 48
38 38 40 42 46 48 49 51 52 51 51 51 51 48 47 50 51 54 60 66 69 68 66 62 64 71 79 87 92 95 95 97 100 100 99 98 96 91 86 81 77 74 75 77 75 74 74 72 69 63 56 51
39 41 43 45 46 48 51 52 52 52 51 50 51 52 50 49 48 46 48 56 60 64 69 66 62 63 70 79 87 93 96 98 99 99 99 99 97 94 89 85 80 76 80 85 81 76 76 76 74 70 64 56
43 44 48 52 53 54 56 55 54 53 52 53 54 55 56 54 51 46 46 63 79 83 84 78 69 65 67 71 78 86 92 96 99 100 98 98 99 96 91 86 83 78 76 77 78 75 71 70 68 64 60 54
48 52 56 58 59 59 58 57 56 54 52 53 56 57 58 57 57 53 49 64 87 96 95 92 84 74 71 72 75 80 86 91 97 100 100 99 99 98 92 87 84 81 77 73 73 72 65 59 54 50 48 45
53 57 61 63 64 61 57 56 56 56 56 55 57 58 59 59 59 59 55 55 66 76 82 89 90 83 75 74 77 80 83 87 92 97 100 100 100 100 96 90 85 82 81 78 72 66 58 49 44 42 41 39
58 64 67 69 70 67 60 59 59 59 61 61 62 60 60 61 61 62 61 56 53 54 58 66 78 85 84 78 77 80 84 86 89 93 98 101 100 100 100 95 89 82 79 79 75 66 58 51 45 42 38 36
61 69 76 76 75 73 65 62 62 63 65 67 68 67 65 64 63 64 64 62 60 57 55 57 62 73 84 88 83 79 81 85 89 90 94 100 101 100 100 100 95 87 78 74 71 66 59 52 47 41 38 36

ECMWFFLT2_850_rhum_018.txt.gz
RH
90 95 97 96 92 91 89 86 87 90 92 88 83 80 83 89 90 89 89 85 81 82 86 93 95 88 83 83 82 84 85 87 89 88 89 92 93 87 74 79 96 98 100 93 83 69 25 -1 3 1 1 1
96 99 99 99 94 92 91 85 81 82 85 87 87 84 85 88 89 90 90 88 83 77 79 90 95 92 86 86 86 84 85 86 89 88 88 92 93 94 84 78 90 97 102 96 85 82 46 5 1 3 -0 2
99 100 100 100 99 96 94 89 84 80 75 77 80 80 85 90 89 91 91 90 87 78 75 85 93 91 86 89 89 85 85 85 88 87 84 87 90 94 90 79 85 96 101 99 89 86 64 23 6 8 3 2
96 98 99 100 100 99 97 94 90 86 78 72 69 67 74 86 92 91 92 93 91 84 78 82 94 92 85 85 86 84 84 85 88 86 83 84 88 93 93 86 87 95 99 101 93 85 77 47 23 22 17 7
86 89 93 95 97 99 99 97 94 92 89 81 72 64 60 69 83 89 92 94 92 89 83 82 92 94 88 83 81 83 83 84 87 87 87 86 87 91 92 88 86 94 98 100 96 88 82 66 49 46 37 22
76 79 82 86 89 93 94 95 97 96 95 91 85 77 65 59 65 75 85 92 93 91 87 84 86 88 89 84 80 83 85 85 83 86 88 85 88 91 91 87 84 93 98 99 99 91 85 81 73 68 56 41
61 67 72 77 79 82 87 88 91 92 91 92 92 88 80 71 63 66 78 88 90 91 92 89 84 83 86 84 81 83 87 89 81 84 87 85 90 93 94 91 84 87 92 98 99 92 87 87 83 78 69 56
36 43 50 59 65 70 77 81 84 85 85 86 88 91 91 87 78 72 78 88 88 88 91 91 88 86 87 84 83 82 84 89 83 82 87 89 93 96 97 94 88 84 85 89 92 91 86 84 83 78 74 64
21 22 26 33 41 49 58 68 75 78 81 82 82 86 89 91 89 82 79 87 86 86 90 91 90 88 90 88 86 85 80 83 84 82 86 90 94 99 99 95 91 86 82 81 83 89 88 84 81 77 74 69
18 17 18 18 20 24 29 39 48 57 67 76 81 82 84 85 89 89 84 86 84 84 88 88 90 89 91 91 89 88 84 80 79 80 84 88 93 98 99 96 92 87 82 79 77 83 88 86 79 76 74 69
18 17 17 17 16 16 15 18 21 28 37 49 65 75 83 83 83 86 87 92 89 86 85 83 87 90 91 94 91 89 87 84 79 77 80 85 91 95 98 97 94 90 84 78 76 80 84 81 75 75 71 68
16 16 16 15 15 15 14 14 13 14 16 20 31 47 65 77 81 84 85 91 93 93 90 85 85 87 91 94 93 91 88 85 81 80 79 81 87 92 97 99 96 91 84 77 77 79 78 75 70 71 70 67
16 15 15 15 14 14 13 13 13 12 12 11 12 18 31 48 65 77 83 87 89 94 95 94 92 86 86 91 93 94 92 87 82 82 82 80 82 89 94 97 98 93 85 78 76 76 73 70 66 67 68 65
18 16 15 15 14 14 14 12 12 11 10 10 10 10 12 19 32 49 68 80 84 89 92 97 98 92 87 88 90 93 95 93 84 80 83 84 80 83 91 95 98 94 89 82 77 77 73 68 65 65 66 62
21 20 17 16 16 16 17 15 14 12 10 9 8 8 9 9 13 20 36 58 73 81 87 91 95 98 96 91 90 93 96 97 91 79 77 85 81 78 86 92 97 96 92 87 81 79 75 70 67 65 65 55
22 22 19 17 18 20 21 20 17 16 14 11 8 6 7 8 9 11 16 30 51 67 79 85 88 92 96 97 95 93 95 98 96 86 78 84 83 78 83 87 92 95 93 90 85 81 78 73 70 67 63 45
24 24 22 20 21 25 26 25 21 20 19 16 12 8 6 6 8 11 12 16 29 49 65 76 84 86 87 93 96 93 95 97 95 89 85 88 85 81 85 86 87 91 91 88 83 81 79 76 71 69 62 38
26 24 24 25 27 32 32 30 26 25 26 23 17 11 8 6 8 10 11 14 20 33 50 63 74 83 85 85 90 94 96 97 97 94 91 91 89 83 83 86 88 88 87 85 79 76 77 76 72 71 66 44
27 25 24 25 30 36 39 38 36 34 33 30 22 16 12 8 8 10 13 21 27 31 43 56 64 74 83 84 86 91 92 93 96 99 97 93 92 89 84 85 90 88 85 82 75 69 68 71 71 71 71 60
28 27 26 26 28 33 39 40 42 45 44 40 33 24 19 15 14 16 20 34 47 48 47 54 61 67 76 84 86 90 94 94 91 94 98 98 96 95 90 85 88 88 85 81 73 66 62 64 69 69 69 68
29 29 30 31 31 32 36 40 43 47 48 48 45 37 29 26 24 24 27 38 53 62 60 60 63 66 72 80 87 91 95 98 95 92 93 96 99 98 96 90 86 86 85 82 78 73 64 58 63 65 64 64
32 33 34 36 37 36 37 41 43 44 46 47 50 49 42 35 34 34 34 38 45 54 62 66 68 70 72 74 82 91 96 98 99 99 95 93 97 99 99 96 91 86 84 82 82 83 75 60 55 57 62 65
36 38 41 42 41 41 43 44 46 47 49 49 51 54 51 45 41 40 40 42 43 45 51 58 66 72 74 72 74 82 92 99 98 99 101 98 98 100 99 100 96 89 84 82 82 85 83 72 58 52 56 63
33 34 38 43 46 50 53 54 55 55 56 55 54 54 54 52 48 45 46 50 49 46 44 45 51 60 69 74 75 74 79 92 100 99 100 100 100 100 99 100 98 93 89 87 88 89 89 86 74 62 55 56
33 32 33 42 55 63 62 60 61 62 62 61 60 57 55 54 52 49 49 55 56 51 47 43 41 51 67 79 83 81 73 76 91 99 100 100 99 100 100 100 100 98 96 94 96 97 96 96 90 80 69 59
37 38 37 41 54 61 60 59 59 62 63 61 60 59 56 54 54 53 52 54 57 55 54 50 45 54 77 91 92 92 82 72 78 91 99 100 99 100 100 100 100 100 100 99 98 98 98 99 98 93 86 76
43 44 44 44 48 53 54 53 54 60 65 64 61 60 59 57 56 58 59 56 56 57 59 59 53 53 70 88 93 95 91 80 74 80 91 98 100 100 99 100 100 100 100 99 97 98 99 99 99 99 98 92
46 47 49 49 48 48 47 44 44 50 57 62 64 62 62 62 61 62 64 61 57 59 61 63 60 55 56 65 73 79 85 87 82 78 82 91 98 99 100 100 100 100 100 99 99 99 98 95 96 97 92 87
49 51 52 51 47 44 43 44 45 46 51 60 66 64 62 65 66 65 63 59 57 61 65 65 64 61 57 53 52 56 66 77 85 86 83 83 91 97 99 100 99 100 100 100 100 99 96 89 87 89 81 78
52 56 56 52 47 47 54 60 60 61 65 70 70 65 61 61 59 57 57 57 57 62 67 69 68 65 64 60 54 49 50 58 70 84 89 86 86 91 96 99 100 100 100 100 100 99 98 88 81 81 78 74
57 61 59 51 46 51 64 70 68 69 71 69 67 64 64 62 59 59 63 67 67 66 68 71 72 69 67 65 62 58 54 52 55 67 84 94 93 90 92 97 99 100 100 100 100 99 100 94 86 82 77 73

ECMWFFLT2_850_rhum_021.txt.gz
RH
99 99 100 98 98 100 99 99 97 95 95 95 91 89 88 89 92 93 94 91 91 93 95 97 92 87 78 76 83 84 83 78 87 93 89 94 96 95 91 87 89 96 99 100 97 88 83 43 -1 12 31 43
98 100 100 100 100 100 99 99 100 98 95 94 93 93 89 88 93 94 95 91 89 92 95 96 94 96 91 82 78 80 85 79 82 91 91 93 95 98 95 92 90 90 98 101 100 91 89 59 5 1 14 18
92 97 98 98 99 100 100 100 99 100 98 94 91 90 86 84 88 91 94 94 92 92 91 93 94 93 89 89 84 78 82 81 82 87 93 94 93 98 96 95 90 87 96 100 101 94 94 79 21 -3 5 5
77 85 89 89 91 94 97 100 100 100 98 95 94 90 85 81 83 89 92 94 94 94 93 91 93 90 80 85 91 86 81 78 80 83 90 96 95 99 98 95 91 89 96 98 101 97 96 95 54 8 -2 5
57 64 71 73 74 78 81 88 94 96 94 95 98 95 90 82 80 85 90 93 94 94 95 92 91 93 85 80 87 91 87 79 76 79 84 91 95 97 96 96 94 90 90 90 93 95 96 98 85 46 5 0
39 44 48 52 54 57 59 64 72 78 81 87 92 94 94 90 84 82 84 89 94 94 95 96 92 92 92 85 82 84 88 83 75 75 78 85 94 94 93 97 97 92 90 89 86 87 95 98 96 82 40 12
27 30 31 34 37 40 42 44 50 53 55 62 68 78 87 93 93 88 83 85 93 94 92 97 95 91 92 91 87 81 82 82 76 73 71 78 92 93 93 98 98 94 95 95 84 73 81 92 90 90 75 50
20 21 21 23 25 28 30 29 33 34 34 36 37 45 57 72 87 91 86 83 88 92 91 93 95 94 93 92 92 87 81 80 78 72 68 73 86 92 93 97 99 97 97 96 85 71 67 75 79 82 84 75
18 18 18 18 19 20 21 21 22 22 22 23 22 21 24 35 56 75 83 86 87 90 93 94 94 94 92 90 91 91 86 84 82 74 69 72 78 88 93 95 99 99 99 97 90 84 75 69 72 75 79 79
18 18 18 17 17 17 17 18 18 18 17 17 18 16 13 14 21 36 53 68 80 87 92 95 96 96 93 91 90 91 90 87 87 79 71 69 70 79 89 93 98 100 100 98 92 90 87 78 75 76 77 80
18 18 17 17 17 16 16 16 16 16 17 16 15 15 14 13 11 12 17 27 45 66 82 90 95 98 98 97 95 93 93 90 88 87 79 70 67 71 83 92 95 99 100 99 97 94 91 87 83 81 81 81
19 18 18 18 17 17 16 16 16 15 15 15 15 14 13 13 13 11 10 9 13 28 50 72 86 93 95 98 99 97 96 94 90 90 88 81 73 68 75 89 94 96 99 99 98 97 96 93 89 86 84 82
18 18 17 17 17 17 17 16 16 16 15 15 14 14 14 13 12 12 12 11 8 8 16 35 60 79 89 92 95 99 99 98 95 90 89 89 86 76 70 79 90 94 96 99 98 98 99 97 93 90 86 81
16 16 16 15 15 14 15 15 16 16 15 15 14 14 14 14 14 13 13 12 10 9 8 11 26 50 72 85 90 96 100 100 99 94 90 90 91 87 77 72 78 87 93 97 99 99 99 98 96 92 87 84
15 15 15 14 14 14 14 15 16 16 15 14 14 13 13 13 13 14 13 13 12 9 9 8 10 21 42 66 81 89 96 99 100 99 94 93 93 92 88 78 72 76 86 93 97 99 99 98 97 94 89 85
14 14 15 14 14 15 15 15 15 15 15 14 13 13 12 12 13 13 13 13 14 11 9 8 8 11 20 40 64 79 87 92 98 101 99 97 94 90 90 87 79 73 77 86 90 94 95 95 94 92 90 85
16 16 16 17 18 18 17 16 15 14 13 13 12 12 11 11 12 13 15 14 14 13 11 9 7 9 13 23 44 67 80 85 90 96 100 100 97 93 90 90 90 82 76 79 85 89 90 91 90 89 88 84
18 18 18 19 21 22 22 21 19 16 15 15 15 15 13 13 13 13 17 18 17 15 12 11 9 8 13 18 30 50 71 82 85 88 93 97 99 99 95 93 93 89 82 78 80 86 90 90 90 90 87 82
22 21 21 21 22 24 27 28 27 23 21 20 20 21 21 21 23 24 25 26 23 19 15 14 12 12 15 19 25 38 57 75 84 87 88 92 98 100 99 99 95 89 88 84 77 80 88 91 91 91 88 82
26 25 24 24 24 24 26 30 34 34 29 27 25 26 28 31 37 42 42 38 33 27 23 21 20 20 21 25 30 37 50 66 80 89 91 94 97 99 99 100 99 93 92 91 82 76 79 88 91 91 89 83
31 31 30 28 28 26 25 27 35 41 40 38 37 38 39 41 48 56 56 50 42 37 34 32 30 30 31 33 36 40 49 60 73 85 93 98 99 100 99 99 100 98 95 95 90 80 73 78 85 87 87 82
38 36 35 34 34 33 31 29 32 39 45 50 51 52 53 53 55 58 60 57 50 45 42 40 39 37 37 39 39 40 46 55 67 77 86 96 100 100 100 99 100 99 98 96 94 88 77 73 76 77 79 80
45 43 41 41 40 39 37 35 35 36 41 48 54 58 60 60 61 59 58 58 55 51 48 46 44 41 41 42 42 41 41 47 59 69 77 87 96 100 100 99 100 100 99 98 97 94 87 79 75 74 76 81
49 47 45 46 46 45 43 42 41 39 38 41 46 51 55 58 60 61 60 58 58 56 52 49 48 46 44 46 48 45 42 45 54 64 70 77 86 95 101 100 100 100 99 100 99 97 97 93 87 84 84 87
52 51 50 52 51 49 48 47 45 42 39 39 39 41 45 47 51 59 62 59 59 60 56 51 51 51 48 50 56 55 49 50 59 69 73 74 77 84 95 100 100 100 100 100 100 99 100 99 96 95 94 94
48 51 53 55 54 52 50 49 49 47 43 40 40 38 36 37 44 56 62 61 59 63 64 58 54 54 51 52 59 62 58 54 58 69 79 82 78 77 86 96 100 101 100 100 100 100 100 101 100 99 100 98
48 53 58 58 55 53 53 54 53 51 47 42 42 43 40 46 58 64 64 64 62 64 68 64 59 57 53 53 60 65 65 61 58 59 70 83 85 79 79 87 97 100 101 100 100 100 99 100 101 100 101 100
50 54 57 57 55 56 57 57 54 50 47 42 44 52 53 59 71 72 67 65 64 64 67 65 61 59 53 53 61 68 68 67 65 60 58 69 81 83 81 83 90 97 100 101 99 100 100 99 101 101 97 95
64 68 68 65 62 62 59 58 56 52 51 45 43 57 65 64 65 65 67 70 68 62 60 57 56 61 63 60 63 70 73 71 70 67 60 58 64 72 77 81 86 91 96 101 101 99 100 99 98 96 90 91
71 80 85 85 80 74 68 65 62 59 58 51 49 65 76 72 66 62 67 76 77 70 67 66 64 69 74 73 71 70 73 76 73 71 67 60 57 58 61 70 83 91 92 96 101 100 100 98 95 92 91 95
63 72 83 91 89 83 77 74 71 65 58 53 62 79 84 80 77 73 71 75 81 83 84 84 80 76 74 74 77 76 74 76 74 74 72 66 59 56 52 56 72 88 94 96 98 100 101 100 97 95 96 97